Regional Weather Roundup
Issued by NWS

Home | Current Version | Previous Version | Graphics & Text | Print | Product List | Glossary On
Versions: 1 2 3 4 5 6 7 8 9 10 11 12 13 14 15 16 17 18 19 20 21 22 23 24 25 26 27 28 29 30 31 32 33 34 35 36 37 38 39 40 41 42 43 44 45 46 47 48 49 50
000
ASUS43 KFSD 312210
RWRSD

WEATHER ROUNDUP FOR SOUTH DAKOTA
NATIONAL WEATHER SERVICE SIOUX FALLS SD
500 PM CDT SUN AUG 31 2014

NOTE: "FAIR" INDICATES FEW OR NO CLOUDS BELOW 12,000 FEET WITH NO
SIGNIFICANT WEATHER AND/OR OBSTRUCTIONS TO VISIBILITY.


SDZ001>005-009-010-012>017-312300-
NORTHWEST AND NORTH CENTRAL SOUTH DAKOTA

CITY           SKY/WX    TMP DP  RH WIND       PRES   REMARKS
BUFFALO          N/A     70  46  42 CALM      29.72R
FAITH            N/A     63  59  87 NW7       29.77R
MOBRIDGE       CLOUDY    71  60  68 NW3       29.68F
$$

SDZ012>016-024>037-041>051-057-063-072>074-312300-
SOUTHWEST AND SOUTH CENTRAL SOUTH DAKOTA

CITY           SKY/WX    TMP DP  RH WIND       PRES   REMARKS
RAPID CTY ARPT RAIN      57  54  89 N14       29.80R FOG
PIERRE         PTSUNNY   70  59  68 NW5       29.68F
CUSTER         LGT RAIN  53  46  77 N7        29.86S
ELLSWORTH AFB  RAIN      57  55  94 N8        29.80  FOG
PHILIP         PTSUNNY   73  54  51 CALM      29.72R
PINE RIDGE     LGT RAIN  69  54  58 N5        29.75R
WINNER         FAIR      69  61  75 SE7       29.72F
$$

SDZ004>011-016>023-039-040-312300-
NORTHEAST SOUTH DAKOTA

CITY           SKY/WX    TMP DP  RH WIND       PRES   REMARKS
ABERDEEN       CLOUDY    67  64  90 SW7       29.70S
WATERTOWN      CLOUDY    72  63  73 W10       29.70F
SISSETON         N/A     71  64  78 NW10      29.67S
$$

SDZ017-020-022-023-036>040-048>070-312300-
SOUTHEAST SOUTH DAKOTA

CITY           SKY/WX    TMP DP  RH WIND       PRES   REMARKS
SIOUX FALLS    CLOUDY    76  62  62 NW12      29.70F
HURON          LGT RAIN  66  60  81 N7        29.68F
CHAMBERLAIN    CLOUDY    66  62  86 S6        29.72S
MITCHELL       CLOUDY    71  61  70 CALM      29.73R
YANKTON        CLOUDY    75  61  60 NW20G25   29.71S
$$

ABBREVIATIONS USED IN REMARKS
   TC - TEMPERATURE IN CELSIUS
  WCI - WIND CHILL INDEX
   HX - HEAT INDEX
  VSB - VISIBILITY



USA.gov is the U.S. government's official web portal to all federal, state and local government web resources and services.